Starlink 31561

operational
NORAD ID: 59352 Int'l Des: 2024-060 Owner: SPXS Country: US Constellation: starlink
LEOCIRCULAR

About Starlink 31561

Description loading...

Live Position

Loading 3D Globe...

Upcoming Passes

Altitude History

Altitude vs Time

uPlot chart will show altitude changes over time

Two-Line Element Set

1 59352U 24060E 25352.32231442 -.00002360 00000-0 -76241-4 0 9991
2 59352 43.0019 358.9589 0001632 256.8377 103.2293 15.27587544 97622
Epoch: Dec 18, 2025 • Age: 12 hours

Current Status

Altitude 482.2 km
Velocity 7.63 km/s
Sub-Earth Point 11.39°N, 144.66°E
Launch Date Mar 31, 2024
Age 1.7 years
Type internet

Technical Details

Classification Payload
Mass 730.00 kg
Dry Mass 700.00 kg
Total Mass 730.00 kg
Length 0.30 m
Diameter 4.10 m
Span 29.00 m
Shape Box + pan
Manufacturer SPXS
Bus Type Starlink V2M
Phase Status In Orbit
Owner/State SPXS/US

Large Constellations

Loading constellations...